Year,Month,Day,Hour,Minute,Value (Times are PST for temperature in C)
2006,11,29,00,00,-6.10
2006,11,29,00,01,-6.10
2006,11,29,00,02,-6.10
2006,11,29,00,03,-6.10
2006,11,29,00,04,-6.10
2006,11,29,00,05,-6.10
2006,11,29,00,06,-6.10
2006,11,29,00,07,-6.10
2006,11,29,00,08,-6.20
2006,11,29,00,09,-6.20
2006,11,29,00,10,-6.20
2006,11,29,00,11,-6.20
2006,11,29,00,12,-6.20
2006,11,29,00,13,-6.20
2006,11,29,00,14,-6.20
2006,11,29,00,15,-6.20
2006,11,29,00,16,-6.20
2006,11,29,00,17,-6.20
2006,11,29,00,18,-6.20
2006,11,29,00,19,-6.20
2006,11,29,00,20,-6.20
2006,11,29,00,21,-6.30
2006,11,29,00,22,-6.30
2006,11,29,00,23,-6.30
2006,11,29,00,24,-6.30
2006,11,29,00,25,-6.30
2006,11,29,00,26,-6.30
2006,11,29,00,27,-6.30
2006,11,29,00,28,-6.40
2006,11,29,00,29,-6.40
2006,11,29,00,30,-6.40
2006,11,29,00,31,-6.40
2006,11,29,00,32,-6.40
2006,11,29,00,33,-6.40
2006,11,29,00,34,-6.40
2006,11,29,00,35,-6.40
2006,11,29,00,36,-6.40
2006,11,29,00,37,-6.40
2006,11,29,00,38,-6.50
2006,11,29,00,39,-6.50
2006,11,29,00,40,-6.50
2006,11,29,00,41,-6.50
2006,11,29,00,42,-6.60
2006,11,29,00,43,-6.60
2006,11,29,00,44,-6.60
2006,11,29,00,45,-6.60
2006,11,29,00,46,-6.60
2006,11,29,00,47,-6.60
2006,11,29,00,48,-6.70
2006,11,29,00,49,-6.70
2006,11,29,00,50,-6.70
2006,11,29,00,51,-6.70
2006,11,29,00,52,-6.70
2006,11,29,00,53,-6.60
2006,11,29,00,54,-6.60
2006,11,29,00,55,-6.60
2006,11,29,00,56,-6.60
2006,11,29,00,57,-6.60
2006,11,29,00,58,-6.60
2006,11,29,00,59,-6.60
2006,11,29,01,00,-6.50
2006,11,29,01,01,-6.50
2006,11,29,01,02,-6.50
2006,11,29,01,03,-6.50
2006,11,29,01,04,-6.50
2006,11,29,01,05,-6.50
2006,11,29,01,06,-6.50
2006,11,29,01,07,-6.50
2006,11,29,01,08,-6.50
2006,11,29,01,09,-6.50
2006,11,29,01,10,-6.50
2006,11,29,01,11,-6.50
2006,11,29,01,12,-6.50
2006,11,29,01,13,-6.50
2006,11,29,01,14,-6.50
2006,11,29,01,15,-6.50
2006,11,29,01,16,-6.50
2006,11,29,01,17,-6.40
2006,11,29,01,18,-6.40
2006,11,29,01,19,-6.40
2006,11,29,01,20,-6.40
2006,11,29,01,21,-6.40
2006,11,29,01,22,-6.40
2006,11,29,01,23,-6.40
2006,11,29,01,24,-6.40
2006,11,29,01,25,-6.40
2006,11,29,01,26,-6.40
2006,11,29,01,27,-6.40
2006,11,29,01,28,-6.30
2006,11,29,01,29,-6.30
2006,11,29,01,30,-6.30
2006,11,29,01,31,-6.30
2006,11,29,01,32,-6.30
2006,11,29,01,33,-6.30
2006,11,29,01,34,-6.30
2006,11,29,01,35,-6.30
2006,11,29,01,36,-6.30
2006,11,29,01,37,-6.40
2006,11,29,01,38,-6.40
2006,11,29,01,39,-6.40
2006,11,29,01,40,-6.40
2006,11,29,01,41,-6.40
2006,11,29,01,42,-6.50
2006,11,29,01,43,-6.50
2006,11,29,01,44,-6.50
2006,11,29,01,45,-6.50
2006,11,29,01,46,-6.50
2006,11,29,01,47,-6.50
2006,11,29,01,48,-6.50
2006,11,29,01,49,-6.50
2006,11,29,01,50,-6.50
2006,11,29,01,51,-6.50
2006,11,29,01,52,-6.50
2006,11,29,01,53,-6.50
2006,11,29,01,54,-6.40
2006,11,29,01,55,-6.40
2006,11,29,01,56,-6.40
2006,11,29,01,57,-6.30
2006,11,29,01,58,-6.30
2006,11,29,01,59,-6.30
2006,11,29,02,00,-6.30
2006,11,29,02,01,-6.20
2006,11,29,02,02,-6.20
2006,11,29,02,03,-6.20
2006,11,29,02,04,-6.20
2006,11,29,02,05,-6.20
2006,11,29,02,06,-6.20
2006,11,29,02,07,-6.20
2006,11,29,02,08,-6.20
2006,11,29,02,09,-6.20
2006,11,29,02,10,-6.20
2006,11,29,02,11,-6.30
2006,11,29,02,12,-6.30
2006,11,29,02,13,-6.30
2006,11,29,02,14,-6.30
2006,11,29,02,15,-6.30
2006,11,29,02,16,-6.40
2006,11,29,02,17,-6.40
2006,11,29,02,18,-6.40
2006,11,29,02,19,-6.40
2006,11,29,02,20,-6.40
2006,11,29,02,21,-6.40
2006,11,29,02,22,-6.40
2006,11,29,02,23,-6.40
2006,11,29,02,24,-6.40
2006,11,29,02,25,-6.50
2006,11,29,02,26,-6.50
2006,11,29,02,27,-6.50
2006,11,29,02,28,-6.50
2006,11,29,02,29,-6.50
2006,11,29,02,30,-6.50
2006,11,29,02,31,-6.50
2006,11,29,02,32,-6.50
2006,11,29,02,33,-6.50
2006,11,29,02,34,-6.50
2006,11,29,02,35,-6.50
2006,11,29,02,36,-6.50
2006,11,29,02,37,-6.50
2006,11,29,02,38,-6.50
2006,11,29,02,39,-6.40
2006,11,29,02,40,-6.40
2006,11,29,02,41,-6.40
2006,11,29,02,42,-6.40
2006,11,29,02,43,-6.40
2006,11,29,02,44,-6.30
2006,11,29,02,45,-6.30
2006,11,29,02,46,-6.30
2006,11,29,02,47,-6.30
2006,11,29,02,48,-6.20
2006,11,29,02,49,-6.20
2006,11,29,02,50,-6.20
2006,11,29,02,51,-6.20
2006,11,29,02,52,-6.20
2006,11,29,02,53,-6.20
2006,11,29,02,54,-6.20
2006,11,29,02,55,-6.20
2006,11,29,02,56,-6.10
2006,11,29,02,57,-6.10
2006,11,29,02,58,-6.10
2006,11,29,02,59,-6.10
2006,11,29,03,00,-6.10
2006,11,29,03,01,-6.10
2006,11,29,03,02,-6.10
2006,11,29,03,03,-6.10
2006,11,29,03,04,-6.10
2006,11,29,03,05,-6.10
2006,11,29,03,06,-6.10
2006,11,29,03,07,-6.10
2006,11,29,03,08,-6.10
2006,11,29,03,09,-6.10
2006,11,29,03,10,-6.10
2006,11,29,03,11,-6.10
2006,11,29,03,12,-6.10
2006,11,29,03,13,-6.10
2006,11,29,03,14,-6.10
2006,11,29,03,15,-6.10
2006,11,29,03,16,-6.20
2006,11,29,03,17,-6.20
2006,11,29,03,18,-6.20
2006,11,29,03,19,-6.20
2006,11,29,03,20,-6.20
2006,11,29,03,21,-6.20
2006,11,29,03,22,-6.20
2006,11,29,03,23,-6.20
2006,11,29,03,24,-6.20
2006,11,29,03,25,-6.20
2006,11,29,03,26,-6.20
2006,11,29,03,27,-6.20
2006,11,29,03,28,-6.20
2006,11,29,03,29,-6.20
2006,11,29,03,30,-6.20
2006,11,29,03,31,-6.10
2006,11,29,03,32,-6.10
2006,11,29,03,33,-6.10
2006,11,29,03,34,-6.10
2006,11,29,03,35,-6.10
2006,11,29,03,36,-6.10
2006,11,29,03,37,-6.10
2006,11,29,03,38,-6.10
2006,11,29,03,39,-6.10
2006,11,29,03,40,-6.10
2006,11,29,03,41,-6.10
2006,11,29,03,42,-6.10
2006,11,29,03,43,-6.10
2006,11,29,03,44,-6.10
2006,11,29,03,45,-6.10
2006,11,29,03,46,-6.00
2006,11,29,03,47,-5.90
2006,11,29,03,48,-5.90
2006,11,29,03,49,-5.90
2006,11,29,03,50,-5.90
2006,11,29,03,51,-5.90
2006,11,29,03,52,-5.90
2006,11,29,03,53,-5.90
2006,11,29,03,54,-5.90
2006,11,29,03,55,-5.90
2006,11,29,03,56,-5.90
2006,11,29,03,57,-5.90
2006,11,29,03,58,-5.90
2006,11,29,03,59,-5.90
2006,11,29,04,00,-5.90
2006,11,29,04,01,-5.80
2006,11,29,04,02,-5.80
2006,11,29,04,03,-5.80
2006,11,29,04,04,-5.80
2006,11,29,04,05,-5.70
2006,11,29,04,06,-5.70
2006,11,29,04,07,-5.70
2006,11,29,04,08,-5.70
2006,11,29,04,09,-5.70
2006,11,29,04,10,-5.70
2006,11,29,04,11,-5.70
2006,11,29,04,12,-5.70
2006,11,29,04,13,-5.70
2006,11,29,04,14,-5.60
2006,11,29,04,15,-5.60
2006,11,29,04,16,-5.60
2006,11,29,04,17,-5.60
2006,11,29,04,18,-5.60
2006,11,29,04,19,-5.60
2006,11,29,04,20,-5.60
2006,11,29,04,21,-5.60
2006,11,29,04,22,-5.60
2006,11,29,04,23,-5.60
2006,11,29,04,24,-5.60
2006,11,29,04,25,-5.60
2006,11,29,04,26,-5.50
2006,11,29,04,27,-5.50
2006,11,29,04,28,-5.50
2006,11,29,04,29,-5.50
2006,11,29,04,30,-5.40
2006,11,29,04,31,-5.40
2006,11,29,04,32,-5.40
2006,11,29,04,33,-5.40
2006,11,29,04,34,-5.30
2006,11,29,04,35,-5.30
2006,11,29,04,36,-5.30
2006,11,29,04,37,-5.30
2006,11,29,04,38,-5.30
2006,11,29,04,39,-5.30
2006,11,29,04,40,-5.30
2006,11,29,04,41,-5.30
2006,11,29,04,42,-5.30
2006,11,29,04,43,-5.30
2006,11,29,04,44,-5.30
2006,11,29,04,45,-5.30
2006,11,29,04,46,-5.30
2006,11,29,04,47,-5.30
2006,11,29,04,48,-5.20
2006,11,29,04,49,-5.20
2006,11,29,04,50,-5.20
2006,11,29,04,51,-5.20
2006,11,29,04,52,-5.20
2006,11,29,04,53,-5.20
2006,11,29,04,54,-5.20
2006,11,29,04,55,-5.20
2006,11,29,04,56,-5.20
2006,11,29,04,57,-5.20
2006,11,29,04,58,-5.20
2006,11,29,04,59,-5.10
2006,11,29,05,00,-5.10
2006,11,29,05,01,-5.10
2006,11,29,05,02,-5.10
2006,11,29,05,03,-5.10
2006,11,29,05,04,-5.10
2006,11,29,05,05,-5.10
2006,11,29,05,06,-5.10
2006,11,29,05,07,-5.10
2006,11,29,05,08,-5.10
2006,11,29,05,09,-5.10
2006,11,29,05,10,-5.10
2006,11,29,05,11,-5.10
2006,11,29,05,12,-5.10
2006,11,29,05,13,-5.10
2006,11,29,05,14,-5.10
2006,11,29,05,15,-5.10
2006,11,29,05,16,-5.10
2006,11,29,05,17,-5.10
2006,11,29,05,18,-5.10
2006,11,29,05,19,-5.10
2006,11,29,05,20,-5.10
2006,11,29,05,21,-5.10
2006,11,29,05,22,-5.10
2006,11,29,05,23,-5.10
2006,11,29,05,24,-5.10
2006,11,29,05,25,-5.10
2006,11,29,05,26,-5.10
2006,11,29,05,27,-5.10
2006,11,29,05,28,-5.10
2006,11,29,05,29,-5.10
2006,11,29,05,30,-5.10
2006,11,29,05,31,-5.10
2006,11,29,05,32,-5.10
2006,11,29,05,33,-5.10
2006,11,29,05,34,-5.10
2006,11,29,05,35,-5.10
2006,11,29,05,36,-5.10
2006,11,29,05,37,-5.10
2006,11,29,05,38,-5.10
2006,11,29,05,39,-5.10
2006,11,29,05,40,-5.10
2006,11,29,05,41,-5.10
2006,11,29,05,42,-5.10
2006,11,29,05,43,-5.10
2006,11,29,05,44,-5.10
2006,11,29,05,45,-5.10
2006,11,29,05,46,-5.10
2006,11,29,05,47,-5.10
2006,11,29,05,48,-5.10
2006,11,29,05,49,-5.10
2006,11,29,05,50,-5.10
2006,11,29,05,51,-5.10
2006,11,29,05,52,-5.10
2006,11,29,05,53,-5.10
2006,11,29,05,54,-5.10
2006,11,29,05,55,-5.10
2006,11,29,05,56,-5.10
2006,11,29,05,57,-5.10
2006,11,29,05,58,-5.10
2006,11,29,05,59,-5.10
2006,11,29,06,00,-5.10
2006,11,29,06,01,-5.10
2006,11,29,06,02,-5.10
2006,11,29,06,03,-5.10
2006,11,29,06,04,-5.10
2006,11,29,06,05,-5.10
2006,11,29,06,06,-5.10
2006,11,29,06,07,-5.10
2006,11,29,06,08,-5.10
2006,11,29,06,09,-5.10
2006,11,29,06,10,-5.10
2006,11,29,06,11,-5.10
2006,11,29,06,12,-5.10
2006,11,29,06,13,-5.10
2006,11,29,06,14,-5.10
2006,11,29,06,15,-5.10
2006,11,29,06,16,-5.10
2006,11,29,06,17,-5.10
2006,11,29,06,18,-5.10
2006,11,29,06,19,-5.10
2006,11,29,06,20,-5.10
2006,11,29,06,21,-5.10
2006,11,29,06,22,-5.10
2006,11,29,06,23,-5.10
2006,11,29,06,24,-5.10
2006,11,29,06,25,-5.10
2006,11,29,06,26,-5.10
2006,11,29,06,27,-5.10
2006,11,29,06,28,-5.00
2006,11,29,06,29,-5.00
2006,11,29,06,30,-5.00
2006,11,29,06,31,-5.00
2006,11,29,06,32,-5.00
2006,11,29,06,33,-5.00
2006,11,29,06,34,-5.00
2006,11,29,06,35,-5.00
2006,11,29,06,36,-5.00
2006,11,29,06,37,-5.00
2006,11,29,06,38,-5.00
2006,11,29,06,39,-5.00
2006,11,29,06,40,-5.00
2006,11,29,06,41,-5.00
2006,11,29,06,42,-4.90
2006,11,29,06,43,-4.90
2006,11,29,06,44,-4.90
2006,11,29,06,45,-4.90
2006,11,29,06,46,-4.90
2006,11,29,06,47,-4.90
2006,11,29,06,48,-4.90
2006,11,29,06,49,-4.90
2006,11,29,06,50,-4.80
2006,11,29,06,51,-4.80
2006,11,29,06,52,-4.80
2006,11,29,06,53,-4.80
2006,11,29,06,54,-4.80
2006,11,29,06,55,-4.80
2006,11,29,06,56,-4.80
2006,11,29,06,57,-4.80
2006,11,29,06,58,-4.80
2006,11,29,06,59,-4.80
2006,11,29,07,00,-4.80
2006,11,29,07,01,-4.80
2006,11,29,07,02,-4.80
2006,11,29,07,03,-4.80
2006,11,29,07,04,-4.70
2006,11,29,07,05,-4.70
2006,11,29,07,06,-4.70
2006,11,29,07,07,-4.70
2006,11,29,07,08,-4.70
2006,11,29,07,09,-4.70
2006,11,29,07,10,-4.70
2006,11,29,07,11,-4.70
2006,11,29,07,12,-4.70
2006,11,29,07,13,-4.70
2006,11,29,07,14,-4.70
2006,11,29,07,15,-4.70
2006,11,29,07,16,-4.70
2006,11,29,07,17,-4.70
2006,11,29,07,18,-4.70
2006,11,29,07,19,-4.70
2006,11,29,07,20,-4.70
2006,11,29,07,21,-4.70
2006,11,29,07,22,-4.70
2006,11,29,07,23,-4.70
2006,11,29,07,24,-4.70
2006,11,29,07,25,-4.70
2006,11,29,07,26,-4.70
2006,11,29,07,27,-4.70
2006,11,29,07,28,-4.70
2006,11,29,07,29,-4.70
2006,11,29,07,30,-4.70
2006,11,29,07,31,-4.70
2006,11,29,07,32,-4.70
2006,11,29,07,33,-4.70
2006,11,29,07,34,-4.70
2006,11,29,07,35,-4.60
2006,11,29,07,36,-4.60
2006,11,29,07,37,-4.60
2006,11,29,07,38,-4.60
2006,11,29,07,39,-4.60
2006,11,29,07,40,-4.60
2006,11,29,07,41,-4.60
2006,11,29,07,42,-4.60
2006,11,29,07,43,-4.60
2006,11,29,07,44,-4.50
2006,11,29,07,45,-4.50
2006,11,29,07,46,-4.50
2006,11,29,07,47,-4.50
2006,11,29,07,48,-4.50
2006,11,29,07,49,-4.40
2006,11,29,07,50,-4.40
2006,11,29,07,51,-4.40
2006,11,29,07,52,-4.40
2006,11,29,07,53,-4.40
2006,11,29,07,54,-4.40
2006,11,29,07,55,-4.40
2006,11,29,07,56,-4.40
2006,11,29,07,57,-4.40
2006,11,29,07,58,-4.40
2006,11,29,07,59,-4.40
2006,11,29,08,00,-4.40
2006,11,29,08,01,-4.40
2006,11,29,08,02,-4.40
2006,11,29,08,03,-4.40
2006,11,29,08,04,-4.40
2006,11,29,08,05,-4.40
2006,11,29,08,06,-4.30
2006,11,29,08,07,-4.30
2006,11,29,08,08,-4.30
2006,11,29,08,09,-4.30
2006,11,29,08,10,-4.20
2006,11,29,08,11,-4.20
2006,11,29,08,12,-4.20
2006,11,29,08,13,-4.20
2006,11,29,08,14,-4.20
2006,11,29,08,15,-4.20
2006,11,29,08,16,-4.20
2006,11,29,08,17,-4.10
2006,11,29,08,18,-4.10
2006,11,29,08,19,-4.00
2006,11,29,08,20,-4.00
2006,11,29,08,21,-3.90
2006,11,29,08,22,-3.80
2006,11,29,08,23,-3.80
2006,11,29,08,24,-3.70
2006,11,29,08,25,-3.70
2006,11,29,08,26,-3.70
2006,11,29,08,27,-3.60
2006,11,29,08,28,-3.60
2006,11,29,08,29,-3.60
2006,11,29,08,30,-3.50
2006,11,29,08,31,-3.50
2006,11,29,08,32,-3.50
2006,11,29,08,33,-3.50
2006,11,29,08,34,-3.40
2006,11,29,08,35,-3.40
2006,11,29,08,36,-3.40
2006,11,29,08,37,-3.40
2006,11,29,08,38,-3.40
2006,11,29,08,39,-3.40
2006,11,29,08,40,-3.40
2006,11,29,08,41,-3.40
2006,11,29,08,42,-3.30
2006,11,29,08,43,-3.30
2006,11,29,08,44,-3.30
2006,11,29,08,45,-3.30
2006,11,29,08,46,-3.30
2006,11,29,08,47,-3.30
2006,11,29,08,48,-3.30
2006,11,29,08,49,-3.30
2006,11,29,08,50,-3.30
2006,11,29,08,51,-3.30
2006,11,29,08,52,-3.30
2006,11,29,08,53,-3.30
2006,11,29,08,54,-3.30
2006,11,29,08,55,-3.30
2006,11,29,08,56,-3.30
2006,11,29,08,57,-3.30
2006,11,29,08,58,-3.30
2006,11,29,08,59,-3.30
2006,11,29,09,00,-3.30
2006,11,29,09,01,-3.30
2006,11,29,09,02,-3.20
2006,11,29,09,03,-3.20
2006,11,29,09,04,-3.20
2006,11,29,09,05,-3.20
2006,11,29,09,06,-3.20
2006,11,29,09,07,-3.20
2006,11,29,09,08,-3.20
2006,11,29,09,09,-3.20
2006,11,29,09,10,-3.20
2006,11,29,09,11,-3.30
2006,11,29,09,12,-3.30
2006,11,29,09,13,-3.30
2006,11,29,09,14,-3.30
2006,11,29,09,15,-3.40
2006,11,29,09,16,-3.50
2006,11,29,09,17,-3.60
2006,11,29,09,18,-3.70
2006,11,29,09,19,-3.70
2006,11,29,09,20,-3.80
2006,11,29,09,21,-3.80
2006,11,29,09,22,-3.90
2006,11,29,09,23,-3.90
2006,11,29,09,24,-4.00
2006,11,29,09,25,-4.00
2006,11,29,09,26,-4.00
2006,11,29,09,27,-4.00
2006,11,29,09,28,-4.00
2006,11,29,09,29,-4.00
2006,11,29,09,30,-4.00
2006,11,29,09,31,-4.00
2006,11,29,09,32,-4.00
2006,11,29,09,33,-4.00
2006,11,29,09,34,-4.00
2006,11,29,09,35,-4.00
2006,11,29,09,36,-4.00
2006,11,29,09,37,-4.00
2006,11,29,09,38,-4.00
2006,11,29,09,39,-4.00
2006,11,29,09,40,-4.00
2006,11,29,09,41,-4.00
2006,11,29,09,42,-4.00
2006,11,29,09,43,-3.90
2006,11,29,09,44,-3.90
2006,11,29,09,45,-3.90
2006,11,29,09,46,-3.90
2006,11,29,09,47,-3.80
2006,11,29,09,48,-3.80
2006,11,29,09,49,-3.80
2006,11,29,09,50,-3.70
2006,11,29,09,51,-3.70
2006,11,29,09,52,-3.70
2006,11,29,09,53,-3.70
2006,11,29,09,54,-3.60
2006,11,29,09,55,-3.60
2006,11,29,09,56,-3.60
2006,11,29,09,57,-3.60
2006,11,29,09,58,-3.50
2006,11,29,09,59,-3.50
2006,11,29,10,00,-3.50
2006,11,29,10,01,-3.50
2006,11,29,10,02,-3.40
2006,11,29,10,03,-3.40
2006,11,29,10,04,-3.40
2006,11,29,10,05,-3.40
2006,11,29,10,06,-3.40
2006,11,29,10,07,-3.40
2006,11,29,10,08,-3.40
2006,11,29,10,09,-3.30
2006,11,29,10,10,-3.30
2006,11,29,10,11,-3.30
2006,11,29,10,12,-3.30
2006,11,29,10,13,-3.30
2006,11,29,10,14,-3.30
2006,11,29,10,15,-3.30
2006,11,29,10,16,-3.30
2006,11,29,10,17,-3.20
2006,11,29,10,18,-3.20
2006,11,29,10,19,-3.10
2006,11,29,10,20,-3.10
2006,11,29,10,21,-3.00
2006,11,29,10,22,-3.00
2006,11,29,10,23,-2.90
2006,11,29,10,24,-2.80
2006,11,29,10,25,-2.80
2006,11,29,10,26,-2.80
2006,11,29,10,27,-2.70
2006,11,29,10,28,-2.70
2006,11,29,10,29,-2.60
2006,11,29,10,30,-2.60
2006,11,29,10,31,-2.60
2006,11,29,10,32,-2.60
2006,11,29,10,33,-2.50
2006,11,29,10,34,-2.50
2006,11,29,10,35,-2.50
2006,11,29,10,36,-2.50
2006,11,29,10,37,-2.50
2006,11,29,10,38,-2.40
2006,11,29,10,39,-2.40
2006,11,29,10,40,-2.40
2006,11,29,10,41,-2.40
2006,11,29,10,42,-2.40
2006,11,29,10,43,-2.40
2006,11,29,10,44,-2.40
2006,11,29,10,45,-2.40
2006,11,29,10,46,-2.40
2006,11,29,10,47,-2.40
2006,11,29,10,48,-2.40
2006,11,29,10,49,-2.40
2006,11,29,10,50,-2.50
2006,11,29,10,51,-2.50
2006,11,29,10,52,-2.50
2006,11,29,10,53,-2.50
2006,11,29,10,54,-2.50
2006,11,29,10,55,-2.50
2006,11,29,10,56,-2.50
2006,11,29,10,57,-2.50
2006,11,29,10,58,-2.50
2006,11,29,10,59,-2.50
2006,11,29,11,00,-2.50
2006,11,29,11,01,-2.50
2006,11,29,11,02,-2.50
2006,11,29,11,03,-2.50
2006,11,29,11,04,-2.50
2006,11,29,11,05,-2.50
2006,11,29,11,06,-2.50
2006,11,29,11,07,-2.50
2006,11,29,11,08,-2.50
2006,11,29,11,09,-2.50
2006,11,29,11,10,-2.50
2006,11,29,11,11,-2.50
2006,11,29,11,12,-2.50
2006,11,29,11,13,-2.50
2006,11,29,11,14,-2.50
2006,11,29,11,15,-2.50
2006,11,29,11,16,-2.50
2006,11,29,11,17,-2.50
2006,11,29,11,18,-2.50
2006,11,29,11,19,-2.50
2006,11,29,11,20,-2.50
2006,11,29,11,21,-2.50
2006,11,29,11,22,-2.50
2006,11,29,11,23,-2.50
2006,11,29,11,24,-2.50
2006,11,29,11,25,-2.50
2006,11,29,11,26,-2.50
2006,11,29,11,27,-2.60
2006,11,29,11,28,-2.60
2006,11,29,11,29,-2.60
2006,11,29,11,30,-2.60
2006,11,29,11,31,-2.60
2006,11,29,11,32,-2.60
2006,11,29,11,33,-2.60
2006,11,29,11,34,-2.60
2006,11,29,11,35,-2.60
2006,11,29,11,36,-2.60
2006,11,29,11,37,-2.60
2006,11,29,11,38,-2.60
2006,11,29,11,39,-2.70
2006,11,29,11,40,-2.70
2006,11,29,11,41,-2.70
2006,11,29,11,42,-2.70
2006,11,29,11,43,-2.70
2006,11,29,11,44,-2.70
2006,11,29,11,45,-2.70
2006,11,29,11,46,-2.70
2006,11,29,11,47,-2.70
2006,11,29,11,48,-2.70
2006,11,29,11,49,-2.70
2006,11,29,11,50,-2.70
2006,11,29,11,51,-2.70
2006,11,29,11,52,-2.70
2006,11,29,11,53,-2.60
2006,11,29,11,54,-2.60
2006,11,29,11,55,-2.60
2006,11,29,11,56,-2.60
2006,11,29,11,57,-2.60
2006,11,29,11,58,-2.60
2006,11,29,11,59,-2.60
2006,11,29,12,00,-2.60
2006,11,29,12,01,-2.60
2006,11,29,12,02,-2.60
2006,11,29,12,03,-2.60
2006,11,29,12,04,-2.60
2006,11,29,12,05,-2.60
2006,11,29,12,06,-2.60
2006,11,29,12,07,-2.60
2006,11,29,12,08,-2.60
2006,11,29,12,09,-2.60
2006,11,29,12,10,-2.60
2006,11,29,12,11,-2.60
2006,11,29,12,12,-2.60
2006,11,29,12,13,-2.60
2006,11,29,12,14,-2.60
2006,11,29,12,15,-2.60
2006,11,29,12,16,-2.60
2006,11,29,12,17,-2.60
2006,11,29,12,18,-2.60
2006,11,29,12,19,-2.60
2006,11,29,12,20,-2.60
2006,11,29,12,21,-2.60
2006,11,29,12,22,-2.60
2006,11,29,12,23,-2.60
2006,11,29,12,24,-2.60
2006,11,29,12,25,-2.60
2006,11,29,12,26,-2.60
2006,11,29,12,27,-2.60
2006,11,29,12,28,-2.60
2006,11,29,12,29,-2.60
2006,11,29,12,30,-2.60
2006,11,29,12,31,-2.60
2006,11,29,12,32,-2.60
2006,11,29,12,33,-2.60
2006,11,29,12,34,-2.60
2006,11,29,12,35,-2.60
2006,11,29,12,36,-2.60
2006,11,29,12,37,-2.60
2006,11,29,12,38,-2.60
2006,11,29,12,39,-2.60
2006,11,29,12,40,-2.70
2006,11,29,12,41,-2.70
2006,11,29,12,42,-2.70
2006,11,29,12,43,-2.70
2006,11,29,12,44,-2.70
2006,11,29,12,45,-2.70
2006,11,29,12,46,-2.70
2006,11,29,12,47,-2.70
2006,11,29,12,48,-2.70
2006,11,29,12,49,-2.60
2006,11,29,12,50,-2.60
2006,11,29,12,51,-2.60
2006,11,29,12,52,-2.60
2006,11,29,12,53,-2.60
2006,11,29,12,54,-2.60
2006,11,29,12,55,-2.60
2006,11,29,12,56,-2.60
2006,11,29,12,57,-2.60
2006,11,29,12,58,-2.60
2006,11,29,12,59,-2.60
2006,11,29,13,00,-2.60
2006,11,29,13,01,-2.60
2006,11,29,13,02,-2.60
2006,11,29,13,03,-2.50
2006,11,29,13,04,-2.50
2006,11,29,13,05,-2.50
2006,11,29,13,06,-2.50
2006,11,29,13,07,-2.50
2006,11,29,13,08,-2.40
2006,11,29,13,09,-2.40
2006,11,29,13,10,-2.40
2006,11,29,13,11,-2.40
2006,11,29,13,12,-2.40
2006,11,29,13,13,-2.40
2006,11,29,13,14,-2.40
2006,11,29,13,15,-2.30
2006,11,29,13,16,-2.30
2006,11,29,13,17,-2.30
2006,11,29,13,18,-2.30
2006,11,29,13,19,-2.30
2006,11,29,13,20,-2.30
2006,11,29,13,21,-2.30
2006,11,29,13,22,-2.30
2006,11,29,13,23,-2.30
2006,11,29,13,24,-2.30
2006,11,29,13,25,-2.30
2006,11,29,13,26,-2.30
2006,11,29,13,27,-2.30
2006,11,29,13,28,-2.30
2006,11,29,13,29,-2.30
2006,11,29,13,30,-2.30
2006,11,29,13,31,-2.30
2006,11,29,13,32,-2.30
2006,11,29,13,33,-2.30
2006,11,29,13,34,-2.30
2006,11,29,13,35,-2.30
2006,11,29,13,36,-2.30
2006,11,29,13,37,-2.30
2006,11,29,13,38,-2.30
2006,11,29,13,39,-2.30
2006,11,29,13,40,-2.30
2006,11,29,13,41,-2.30
2006,11,29,13,42,-2.30
2006,11,29,13,43,-2.30
2006,11,29,13,44,-2.30
2006,11,29,13,45,-2.30
2006,11,29,13,46,-2.30
2006,11,29,13,47,-2.20
2006,11,29,13,48,-2.20
2006,11,29,13,49,-2.20
2006,11,29,13,50,-2.20
2006,11,29,13,51,-2.20
2006,11,29,13,52,-2.20
2006,11,29,13,53,-2.20
2006,11,29,13,54,-2.20
2006,11,29,13,55,-2.20
2006,11,29,13,56,-2.10
2006,11,29,13,57,-2.10
2006,11,29,13,58,-2.10
2006,11,29,13,59,-2.10
2006,11,29,14,00,-2.10
2006,11,29,14,01,-2.00
2006,11,29,14,02,-2.00
2006,11,29,14,03,-2.00
2006,11,29,14,04,-2.00
2006,11,29,14,05,-2.00
2006,11,29,14,06,-1.90
2006,11,29,14,07,-1.90
2006,11,29,14,08,-1.90
2006,11,29,14,09,-1.90
2006,11,29,14,10,-1.80
2006,11,29,14,11,-1.80
2006,11,29,14,12,-1.80
2006,11,29,14,13,-1.80
2006,11,29,14,14,-1.80
2006,11,29,14,15,-1.80
2006,11,29,14,16,-1.80
2006,11,29,14,17,-1.80
2006,11,29,14,18,-1.80
2006,11,29,14,19,-1.80
2006,11,29,14,20,-1.80
2006,11,29,14,21,-1.80
2006,11,29,14,22,-1.70
2006,11,29,14,23,-1.70
2006,11,29,14,24,-1.70
2006,11,29,14,25,-1.70
2006,11,29,14,26,-1.70
2006,11,29,14,27,-1.70
2006,11,29,14,28,-1.60
2006,11,29,14,29,-1.60
2006,11,29,14,30,-1.50
2006,11,29,14,31,-1.40
2006,11,29,14,32,-1.30
2006,11,29,14,33,-1.10
2006,11,29,14,34,-1.00
2006,11,29,14,35,-0.90
2006,11,29,14,36,-0.90
2006,11,29,14,37,-0.80
2006,11,29,14,38,-0.80
2006,11,29,14,39,-0.70
2006,11,29,14,40,-0.70
2006,11,29,14,41,-0.60
2006,11,29,14,42,-0.60
2006,11,29,14,43,-0.60
2006,11,29,14,44,-0.60
2006,11,29,14,45,-0.50
2006,11,29,14,46,-0.40
2006,11,29,14,47,-0.40
2006,11,29,14,48,-0.40
2006,11,29,14,49,-0.40
2006,11,29,14,50,-0.40
2006,11,29,14,51,-0.40
2006,11,29,14,52,-0.40
2006,11,29,14,53,-0.40
2006,11,29,14,54,-0.40
2006,11,29,14,55,-0.40
2006,11,29,14,56,-0.40
2006,11,29,14,57,-0.40
2006,11,29,14,58,-0.40
2006,11,29,14,59,-0.40
2006,11,29,15,00,-0.40
2006,11,29,15,01,-0.40
2006,11,29,15,02,-0.30
2006,11,29,15,03,-0.30
2006,11,29,15,04,-0.30
2006,11,29,15,05,-0.30
2006,11,29,15,06,-0.30
2006,11,29,15,07,-0.30
2006,11,29,15,08,-0.30
2006,11,29,15,09,-0.20
2006,11,29,15,10,-0.20
2006,11,29,15,11,-0.20
2006,11,29,15,12,-0.20
2006,11,29,15,13,-0.10
2006,11,29,15,14,-0.10
2006,11,29,15,15,-0.10
2006,11,29,15,16,-0.10
2006,11,29,15,17,-0.10
2006,11,29,15,18,-0.10
2006,11,29,15,19,-0.10
2006,11,29,15,20,-0.10
2006,11,29,15,21,-0.10
2006,11,29,15,22,-0.10
2006,11,29,15,23,0.10
2006,11,29,15,24,0.10
2006,11,29,15,25,0.10
2006,11,29,15,26,0.10
2006,11,29,15,27,0.20
2006,11,29,15,28,0.20
2006,11,29,15,29,0.20
2006,11,29,15,30,0.20
2006,11,29,15,31,0.20
2006,11,29,15,32,0.30
2006,11,29,15,33,0.30
2006,11,29,15,34,0.30
2006,11,29,15,35,0.30
2006,11,29,15,36,0.30
2006,11,29,15,37,0.30
2006,11,29,15,38,0.30
2006,11,29,15,39,0.30
2006,11,29,15,40,0.30
2006,11,29,15,41,0.30
2006,11,29,15,42,0.30
2006,11,29,15,43,0.30
2006,11,29,15,44,0.40
2006,11,29,15,45,0.40
2006,11,29,15,46,0.40
2006,11,29,15,47,0.50
2006,11,29,15,48,0.50
2006,11,29,15,49,0.50
2006,11,29,15,50,0.50
2006,11,29,15,51,0.60
2006,11,29,15,52,0.60
2006,11,29,15,53,0.60
2006,11,29,15,54,0.70
2006,11,29,15,55,0.70
2006,11,29,15,56,0.70
2006,11,29,15,57,0.70
2006,11,29,15,58,0.70
2006,11,29,15,59,0.80
2006,11,29,16,00,0.80
2006,11,29,16,01,0.80
2006,11,29,16,02,0.80
2006,11,29,16,03,0.90
2006,11,29,16,04,0.90
2006,11,29,16,05,1.00
2006,11,29,16,06,1.00
2006,11,29,16,07,1.00
2006,11,29,16,08,1.00
2006,11,29,16,09,1.10
2006,11,29,16,10,1.10
2006,11,29,16,11,1.10
2006,11,29,16,12,1.10
2006,11,29,16,13,1.10
2006,11,29,16,14,1.10
2006,11,29,16,15,1.10
2006,11,29,16,16,1.10
2006,11,29,16,17,1.20
2006,11,29,16,18,1.20
2006,11,29,16,19,1.20
2006,11,29,16,20,1.20
2006,11,29,16,21,1.20
2006,11,29,16,22,1.20
2006,11,29,16,23,1.10
2006,11,29,16,24,1.10
2006,11,29,16,25,1.10
2006,11,29,16,26,1.10
2006,11,29,16,27,1.10
2006,11,29,16,28,1.10
2006,11,29,16,29,1.20
2006,11,29,16,30,1.10
2006,11,29,16,31,1.10
2006,11,29,16,32,1.20
2006,11,29,16,33,1.20
2006,11,29,16,34,1.20
2006,11,29,16,35,1.20
2006,11,29,16,36,1.20
2006,11,29,16,37,1.20
2006,11,29,16,38,1.20
2006,11,29,16,39,1.20
2006,11,29,16,40,1.30
2006,11,29,16,41,1.30
2006,11,29,16,42,1.20
2006,11,29,16,43,1.20
2006,11,29,16,44,1.20
2006,11,29,16,45,1.20
2006,11,29,16,46,1.20
2006,11,29,16,47,1.30
2006,11,29,16,48,1.30
2006,11,29,16,49,1.30
2006,11,29,16,50,1.30
2006,11,29,16,51,1.30
2006,11,29,16,52,1.30
2006,11,29,16,53,1.30
2006,11,29,16,54,1.30
2006,11,29,16,55,1.30
2006,11,29,16,56,1.30
2006,11,29,16,57,1.30
2006,11,29,16,58,1.30
2006,11,29,16,59,1.30
2006,11,29,17,00,1.40
2006,11,29,17,01,1.40
2006,11,29,17,02,1.40
2006,11,29,17,03,1.40
2006,11,29,17,04,1.40
2006,11,29,17,05,1.40
2006,11,29,17,06,1.40
2006,11,29,17,07,1.40
2006,11,29,17,08,1.40
2006,11,29,17,09,1.40
2006,11,29,17,10,1.40
2006,11,29,17,11,1.40
2006,11,29,17,12,1.40
2006,11,29,17,13,1.40
2006,11,29,17,14,1.40
2006,11,29,17,15,1.40
2006,11,29,17,16,1.40
2006,11,29,17,17,1.40
2006,11,29,17,18,1.30
2006,11,29,17,19,1.30
2006,11,29,17,20,1.30
2006,11,29,17,21,1.30
2006,11,29,17,22,1.30
2006,11,29,17,23,1.40
2006,11,29,17,24,1.40